Content
SEND FEEDBACK

Daily
Averages
Monthly
Summary
United States of America

BEDFORD PARK, ILLINOIS


Home > North America > United States > Illinois
Elevation: 623 feet     Latitude: 41 46N     Longitude: 087 45W

WEATHER
 
SELECT A DAY
Number of Records: 187,406;   Date Range: 1/1/95 - 4/18/14
 
SHARE

PRINT THIS DATA

[ ← Previous Day ]
WEATHER ALMANAC - MAY 25, 2013
[ Next Day → ]
[ °C ]   °F
Weather ElementAverageHighLow
Temperature51.8 °F57 °F (2:51 pm)46 °F (2:51 am)
Dewpoint35.7 °F39.9 °F (2:51 pm)32 °F (4:51 am)
Humidity54.4 %63 % (2:51 am)43 % (7:51 pm)
Barometer30.35 in30.41 in (8:51 am)30.31 in (6:51 pm)
Wind Speed3.7 mph9.2 mph (7:51 am)
Weather ElementAverage
Visibility10 mi
Wind DirectionNNE (32.2 °)

Weather ElementTotal
Precipitation---
Heating Degree Days13.5 (Base 65)
Growing Degree Days1.5 (Base 50)
Averaged from 23 records on May 25, 2013
WEATHER CONDITIONS BREAKOUT
WIND DIRECTION BREAKOUT
WEATHER BY HOUR - MAY 25, 2013
[ °C ]   °F
Local TimeTemperatureDewpointHumidityBarometerVisibilityWind DirectionWind SpeedGust SpeedPrecipitationEventsConditions
1:51 AM46.9 °F33.1 °F59 %30.35 in10.0 miCalmMostly Cloudy
2:51 AM46.0 °F34.0 °F63 %30.33 in10.0 miEast (90°)5.8 mphMostly Cloudy
3:51 AM46.9 °F33.1 °F59 %30.36 in10.0 miCalmOvercast
4:51 AM48.0 °F32.0 °F54 %30.37 in10.0 miNE (40°)3.5 mphMostly Cloudy
5:51 AM48.0 °F33.1 °F56 %30.38 in10.0 miCalmMostly Cloudy
6:51 AM50.0 °F34.0 °F54 %30.38 in10.0 miNE (50°)4.6 mphMostly Cloudy
7:51 AM51.1 °F34.0 °F52 %30.39 in10.0 miENE (60°)9.2 mphMostly Cloudy
8:51 AM51.1 °F36.0 °F56 %30.41 in10.0 miCalmMostly Cloudy
9:51 AM51.1 °F36.0 °F56 %30.40 in10.0 miCalmMostly Cloudy
10:51 AM53.1 °F37.0 °F55 %30.41 in10.0 miCalmMostly Cloudy
11:51 AM53.1 °F37.9 °F57 %30.41 in10.0 miCalmMostly Cloudy
12:51 PM54.0 °F39.0 °F57 %30.39 in10.0 miCalmMostly Cloudy
1:51 PM55.9 °F39.0 °F53 %30.35 in10.0 miVariable3.5 mphOvercast
2:51 PM57.0 °F39.9 °F53 %30.34 in10.0 miEast (80°)6.9 mphMostly Cloudy
3:51 PM55.0 °F39.9 °F57 %30.32 in10.0 miNE (50°)9.2 mphOvercast
4:51 PM55.9 °F37.0 °F49 %30.33 in10.0 miNE (40°)5.8 mphOvercast
5:51 PM55.0 °F37.0 °F51 %30.32 in10.0 miNNE (20°)5.8 mphOvercast
6:51 PM55.0 °F35.1 °F47 %30.31 in10.0 miNE (40°)4.6 mphOvercast
7:51 PM54.0 °F32.0 °F43 %30.31 in10.0 miNE (40°)6.9 mphOvercast
8:51 PM52.0 °F36.0 °F54 %30.31 in10.0 miNNE (30°)5.8 mphOvercast
9:51 PM52.0 °F36.0 °F54 %30.33 in10.0 miEast (90°)4.6 mphOvercast
10:51 PM51.1 °F36.0 °F56 %30.33 in10.0 miENE (70°)4.6 mphOvercast
11:51 PM50.0 °F35.1 °F57 %30.32 in10.0 miNE (40°)4.6 mphMostly Cloudy
Hourly data recorded from KMDW, located 0.73 miles away from Bedford Park, Illinois







STORIES FROM OUR PARTNERS